Time,TemperatureF,DewpointF,PressureIn,WindDirection,WindDirectionDegrees,WindSpeedMPH,WindSpeedGustMPH,Humidity,HourlyPrecipIn,Conditions,Clouds,dailyrainin,SolarRadiationWatts/m^2,SoftwareType,DateUTC
2013-04-12 00:32:00,40.0,35.0,-100.00,North,8,3.0,5.0,82,0.00,,,0.00,0.000000,,2013-04-12 06:32:00,
2013-04-12 00:42:00,40.0,35.0,-100.00,North,8,3.0,5.0,82,0.00,,,0.00,0.000000,,2013-04-12 06:42:00,
2013-04-12 00:52:00,40.0,35.0,-100.00,North,8,3.0,5.0,82,0.00,,,0.00,0.000000,,2013-04-12 06:52:00,
2013-04-12 01:32:00,40.0,34.0,-100.00,NW,313,7.0,11.0,80,0.00,,,0.00,0.000000,,2013-04-12 07:32:00,
2013-04-12 01:42:00,40.0,34.0,-100.00,NW,313,7.0,11.0,80,0.00,,,0.00,0.000000,,2013-04-12 07:42:00,
2013-04-12 01:52:00,40.0,34.0,-100.00,NW,313,7.0,11.0,80,0.00,,,0.00,0.000000,,2013-04-12 07:52:00,
2013-04-12 02:22:00,39.0,35.0,-100.00,NW,321,5.0,7.0,85,0.00,,,0.00,0.000000,,2013-04-12 08:22:00,
2013-04-12 02:32:00,39.0,35.0,-100.00,NW,321,5.0,7.0,85,0.00,,,0.00,0.000000,,2013-04-12 08:32:00,
2013-04-12 02:42:00,39.0,35.0,-100.00,NW,321,5.0,7.0,85,0.00,,,0.00,0.000000,,2013-04-12 08:42:00,
2013-04-12 02:52:00,39.0,35.0,-100.00,NW,321,5.0,7.0,85,0.00,,,0.00,0.000000,,2013-04-12 08:52:00,
2013-04-12 03:22:00,39.0,35.0,-100.00,NNW,332,4.0,7.0,87,0.00,,,0.00,0.000000,,2013-04-12 09:22:00,
2013-04-12 03:32:00,39.0,35.0,-100.00,NNW,332,4.0,7.0,87,0.00,,,0.00,0.000000,,2013-04-12 09:32:00,
2013-04-12 03:43:00,39.0,35.0,-100.00,NNW,332,4.0,7.0,87,0.00,,,0.00,0.000000,,2013-04-12 09:43:00,
2013-04-12 04:22:00,38.0,34.0,-100.00,NW,309,5.0,14.0,84,0.00,,,0.00,0.000000,,2013-04-12 10:22:00,
2013-04-12 04:33:00,38.0,34.0,-100.00,NW,309,5.0,14.0,84,0.00,,,0.00,0.000000,,2013-04-12 10:33:00,
2013-04-12 04:42:00,38.0,34.0,-100.00,NW,309,5.0,14.0,84,0.00,,,0.00,0.000000,,2013-04-12 10:42:00,
2013-04-12 04:52:00,38.0,34.0,-100.00,NW,309,5.0,14.0,84,0.00,,,0.00,0.000000,,2013-04-12 10:52:00,
2013-04-12 05:22:00,37.0,33.0,-100.00,NW,305,5.0,9.0,84,0.00,,,0.00,0.000000,,2013-04-12 11:22:00,
2013-04-12 05:32:00,37.0,33.0,-100.00,NW,305,5.0,9.0,84,0.00,,,0.00,0.000000,,2013-04-12 11:32:00,
2013-04-12 05:42:00,37.0,33.0,-100.00,NW,305,5.0,9.0,84,0.00,,,0.00,0.000000,,2013-04-12 11:42:00,
2013-04-12 05:52:00,37.0,33.0,-100.00,NW,305,5.0,9.0,84,0.00,,,0.00,0.000000,,2013-04-12 11:52:00,
2013-04-12 06:22:00,36.0,33.0,-100.00,WSW,241,2.0,7.0,88,0.00,,,0.00,0.000000,,2013-04-12 12:22:00,
2013-04-12 06:32:00,36.0,33.0,-100.00,WSW,241,2.0,7.0,88,0.00,,,0.00,0.000000,,2013-04-12 12:32:00,
2013-04-12 06:42:00,36.0,33.0,-100.00,WSW,241,2.0,7.0,88,0.00,,,0.00,0.000000,,2013-04-12 12:42:00,
2013-04-12 06:52:00,36.0,33.0,-100.00,WSW,241,2.0,7.0,88,0.00,,,0.00,0.000000,,2013-04-12 12:52:00,
2013-04-12 07:22:00,37.0,32.0,-100.00,NNE,17,3.0,10.0,81,0.00,,,0.00,4.000000,,2013-04-12 13:22:00,
2013-04-12 07:32:00,37.0,32.0,-100.00,NNE,17,3.0,10.0,81,0.00,,,0.00,4.000000,,2013-04-12 13:32:00,
2013-04-12 07:42:00,37.0,32.0,-100.00,NNE,17,3.0,10.0,81,0.00,,,0.00,4.000000,,2013-04-12 13:42:00,
2013-04-12 07:52:00,37.0,32.0,-100.00,NNE,17,3.0,10.0,81,0.00,,,0.00,4.000000,,2013-04-12 13:52:00,
2013-04-12 08:22:00,37.0,29.0,-100.00,NW,320,10.0,17.0,74,0.00,,,0.00,61.000000,,2013-04-12 14:22:00,
2013-04-12 08:32:00,37.0,29.0,-100.00,NW,320,10.0,17.0,74,0.00,,,0.00,61.000000,,2013-04-12 14:32:00,
2013-04-12 08:42:00,37.0,29.0,-100.00,NW,320,10.0,17.0,74,0.00,,,0.00,61.000000,,2013-04-12 14:42:00,
2013-04-12 08:52:00,37.0,29.0,-100.00,NW,320,10.0,17.0,74,0.00,,,0.00,61.000000,,2013-04-12 14:52:00,
2013-04-12 09:33:00,41.0,28.0,-100.00,NNW,335,16.0,23.0,60,0.00,,,-99.99,245.000000,,2013-04-12 15:33:00,
2013-04-12 09:43:00,41.0,28.0,-100.00,NNW,335,16.0,23.0,60,0.00,,,-99.99,245.000000,,2013-04-12 15:43:00,
2013-04-12 09:52:00,41.0,28.0,-100.00,NNW,335,16.0,23.0,60,0.00,,,-99.99,245.000000,,2013-04-12 15:52:00,
2013-04-12 10:33:00,42.0,29.0,-100.00,NNW,348,12.0,24.0,60,0.00,,,-99.99,428.000000,,2013-04-12 16:33:00,
2013-04-12 10:42:00,42.0,29.0,-100.00,NNW,348,12.0,24.0,60,0.00,,,-99.99,428.000000,,2013-04-12 16:42:00,
2013-04-12 10:52:00,42.0,29.0,-100.00,NNW,348,12.0,24.0,60,0.00,,,-99.99,428.000000,,2013-04-12 16:52:00,
2013-04-12 11:33:00,42.0,25.0,-100.00,NNW,338,14.0,26.0,51,0.00,,,0.00,512.000000,,2013-04-12 17:33:00,
2013-04-12 11:44:00,42.0,25.0,-100.00,NNW,338,14.0,26.0,51,0.00,,,0.00,512.000000,,2013-04-12 17:44:00,
2013-04-12 11:56:00,42.0,25.0,-100.00,NNW,338,14.0,26.0,51,0.00,,,0.00,512.000000,,2013-04-12 17:56:00,
2013-04-12 13:32:00,43.0,24.0,-100.00,North,352,11.0,22.0,47,0.00,,,0.00,659.000000,,2013-04-12 19:32:00,
2013-04-12 13:42:00,43.0,24.0,-100.00,North,352,11.0,22.0,47,0.00,,,0.00,659.000000,,2013-04-12 19:42:00,
2013-04-12 13:52:00,43.0,24.0,-100.00,North,352,11.0,22.0,47,0.00,,,0.00,659.000000,,2013-04-12 19:52:00,
2013-04-12 14:32:00,45.0,27.0,-100.00,NNW,337,8.0,18.0,48,0.00,,,0.00,447.000000,,2013-04-12 20:32:00,
2013-04-12 14:42:00,45.0,27.0,-100.00,NNW,337,8.0,18.0,48,0.00,,,0.00,447.000000,,2013-04-12 20:42:00,
2013-04-12 14:52:00,45.0,27.0,-100.00,NNW,337,8.0,18.0,48,0.00,,,0.00,447.000000,,2013-04-12 20:52:00,
2013-04-12 15:32:00,47.0,26.0,-100.00,North,2,8.0,14.0,43,0.00,,,0.00,554.000000,,2013-04-12 21:32:00,
2013-04-12 15:42:00,47.0,26.0,-100.00,North,2,8.0,14.0,43,0.00,,,0.00,554.000000,,2013-04-12 21:42:00,
2013-04-12 15:52:00,47.0,26.0,-100.00,North,2,8.0,14.0,43,0.00,,,0.00,554.000000,,2013-04-12 21:52:00,
2013-04-12 16:32:00,50.0,23.0,-100.00,NNW,338,8.0,18.0,34,0.00,,,0.00,649.000000,,2013-04-12 22:32:00,
2013-04-12 16:42:00,50.0,23.0,-100.00,NNW,338,8.0,18.0,34,0.00,,,0.00,649.000000,,2013-04-12 22:42:00,
2013-04-12 16:52:00,50.0,23.0,-100.00,NNW,338,8.0,18.0,34,0.00,,,0.00,649.000000,,2013-04-12 22:52:00,
2013-04-12 17:22:00,50.0,22.0,-100.00,NNW,345,7.0,14.0,33,0.00,,,0.00,535.000000,,2013-04-12 23:22:00,
2013-04-12 17:32:00,50.0,22.0,-100.00,NNW,345,7.0,14.0,33,0.00,,,0.00,535.000000,,2013-04-12 23:32:00,
2013-04-12 17:42:00,50.0,22.0,-100.00,NNW,345,7.0,14.0,33,0.00,,,0.00,535.000000,,2013-04-12 23:42:00,
2013-04-12 17:52:00,50.0,22.0,-100.00,NNW,345,7.0,14.0,33,0.00,,,0.00,535.000000,,2013-04-12 23:52:00,
2013-04-12 18:32:00,47.0,20.0,-100.00,NE,44,6.0,12.0,34,0.00,,,0.00,285.000000,,2013-04-13 00:32:00,
2013-04-12 18:42:00,47.0,20.0,-100.00,NE,44,6.0,12.0,34,0.00,,,0.00,285.000000,,2013-04-13 00:42:00,
2013-04-12 18:52:00,47.0,20.0,-100.00,NE,44,6.0,12.0,34,0.00,,,0.00,285.000000,,2013-04-13 00:52:00,
2013-04-12 19:22:00,45.0,19.0,-100.00,ENE,57,7.0,12.0,35,0.00,,,-99.99,142.000000,,2013-04-13 01:22:00,
2013-04-12 19:32:00,45.0,19.0,-100.00,ENE,57,7.0,12.0,35,0.00,,,-99.99,142.000000,,2013-04-13 01:32:00,
2013-04-12 19:42:00,45.0,19.0,-100.00,ENE,57,7.0,12.0,35,0.00,,,-99.99,142.000000,,2013-04-13 01:42:00,
2013-04-12 19:52:00,45.0,19.0,-100.00,ENE,57,7.0,12.0,35,0.00,,,-99.99,142.000000,,2013-04-13 01:52:00,
2013-04-12 20:22:00,42.0,21.0,-100.00,East,96,8.0,12.0,43,0.00,,,-99.99,28.000000,,2013-04-13 02:22:00,
2013-04-12 20:32:00,42.0,21.0,-100.00,East,96,8.0,12.0,43,0.00,,,-99.99,28.000000,,2013-04-13 02:32:00,
2013-04-12 20:42:00,42.0,21.0,-100.00,East,96,8.0,12.0,43,0.00,,,-99.99,28.000000,,2013-04-13 02:42:00,
2013-04-12 20:52:00,42.0,21.0,-100.00,East,96,8.0,12.0,43,0.00,,,-99.99,28.000000,,2013-04-13 02:52:00,
2013-04-12 21:22:00,39.0,21.0,-100.00,ESE,104,11.0,13.0,48,0.00,,,0.00,0.000000,,2013-04-13 03:22:00,
2013-04-12 21:33:00,39.0,21.0,-100.00,ESE,104,11.0,13.0,48,0.00,,,0.00,0.000000,,2013-04-13 03:33:00,
2013-04-12 21:42:00,39.0,21.0,-100.00,ESE,104,11.0,13.0,48,0.00,,,0.00,0.000000,,2013-04-13 03:42:00,
2013-04-12 21:52:00,39.0,21.0,-100.00,ESE,104,11.0,13.0,48,0.00,,,0.00,0.000000,,2013-04-13 03:52:00,
2013-04-12 22:23:00,35.0,20.0,-100.00,SSE,151,8.0,17.0,54,0.00,,,0.00,0.000000,,2013-04-13 04:23:00,
2013-04-12 22:33:00,35.0,20.0,-100.00,SSE,151,8.0,17.0,54,0.00,,,0.00,0.000000,,2013-04-13 04:33:00,
2013-04-12 22:42:00,35.0,20.0,-100.00,SSE,151,8.0,17.0,54,0.00,,,0.00,0.000000,,2013-04-13 04:42:00,
2013-04-12 22:53:00,35.0,20.0,-100.00,SSE,151,8.0,17.0,54,0.00,,,0.00,0.000000,,2013-04-13 04:53:00,
2013-04-12 23:32:00,34.0,22.0,-100.00,SE,138,10.0,16.0,62,0.00,,,0.00,0.000000,,2013-04-13 05:32:00,
2013-04-12 23:42:00,34.0,22.0,-100.00,SE,138,10.0,16.0,62,0.00,,,0.00,0.000000,,2013-04-13 05:42:00,
2013-04-12 23:52:00,34.0,22.0,-100.00,SE,138,10.0,16.0,62,0.00,,,0.00,0.000000,,2013-04-13 05:52:00,